SCP
0 0 0 0 0 0 0 0 0 0 0 0 0 0 0 0 0 0 0 0 0 0 0 0 0 0 0 0 0 0 0 0 0 0 0 0 0 0
0 0 0 0 0 0 0 0 0 0 0 0 0 0 0 0 0 0 0 0 0 0 0 0 0 0 0 0 0 0 0 0 0 0 0 0 0 0
0 0 0 0 0 0 0 0 0 0 0 0 0 0 0 0 0 0 0 0 0 0 0 0 0 0 0 0 0 0 0 0 0 0 0 0 0 0
0 0 0 0 0 0 0 0 0 0 0 0 0 0 0 0 0 0 0 0 0 0 0 0 0 0 0 0 0 0 0 0 0 0 0 0 0 0
0 0 0 0 0 0 0 0 0 0 0 0 0 0 0 0 0 0 0 0 0 0 0 0 0 0 0 0 0 0 0 0 0 0 0 0 0 0
0 0 0 0 0 0 0 0 0 0 0 0 0 0 0 0 0 0 0 0 0 0 0 0 0 0 0 0 0 0 0 0 0 0 0 0 0 0
0 0 0 0 0 0 0 0 0 0 0 0 0 0 0 0 0 0 0 0 0 0 0 0 0 0 0 0 0 0 0 0 0 0 0 0 0 0
0 0 0 0 0 0 0 0 0 0 0 0 0 0 0 0 0 0 0 0 0 0 0 0 0 0 0 0 0 0 0 0 0 0 0 0 0 0
0 0 0 0 0 0 0 0 0 0 0 0 0 0 0 0 0 0 0 0 0 0 0 0 0 0 0 0 0 0 0 0 0 0 0 0 0 0
0 0 0 0 0 0 0 0 0 0 0 0 0 0 0 0 0 0 0 0 0 0 0 0 0 0 0 0 0 0 0 0 0 0 0 0 0 0
0 0 0 0 0 0 0 0 0 0 0 0 0 0 0 0 0 0 0 0 0 0 0 0 0 0 0 0 0 0 0 0 0 0 0 0 0 0
0 0 0 0 0 0 0 0 0 0 0 0 0 0 0 0 0 0 0 0 0 0 0 0 0 0 0 0 0 0 0 0 0 0 0 0 0 0
0 0 0 0 0 0 0 0 0 0 0 0 0 0 0 0 0 0 0 0 0 0 0 0 0 0 0 0 0 0 0 0 0 0 0 0 0 0
0 0 0 0 0 0 0 0 0 0 0 0 0 0 0 0 0 0 0 0 0 0 0 0 0 0 0 0 0 0 0 0 0 0 0 0 0 0
0 0 0 0 0 0 0 0 0 0 0 0 0 0 0 0 0 0 0 0 0 0 0 0 0 0 0 0 0 0 0 0 0 0 0 0 0 0
0 0 0 0 0 0 0 0 0 0 0 0 0 0 0 0 0 0 0 0 0 0 0 0 0 0 0 0 0 0 0 0 0 0 0 0 0 0
0 0 0 0 0 0 0 0 0 0 0 0 0 0 0 0 0 0 0 0 0 0 0 0 0 0 0 0 0 0 0 0 0 0 0 0 0 0
0 0 0 0 0 0 0 0 0 0 0 0 0 0 0 0 0 0 0 0 0 0 0 0 0 0 0 0 0 0 0 0 0 0 0 0 0 0
0 0 0 0 0 0 0 0 0 0 0 0 0 0 0 0 0 0 0 0 0 0 0 0 0 0 0 0 0 0 0 0 0 0 0 0 0 0
0 0 0 0 0 0 0 0 0 0 0 0 0 0 0 0 0 0 0 0 0 0 0 0 0 0 0 0 0 0 0 0 0 0 0 0 0 0
0 0 0 0 0 0 0 0 0 0 0 0 0 0 0 0 0 0 0 0 0 0 0 0 0 0 0 0 0 0 0 0 0 0 0 0 0 0
0 0 0 0 0 0 0 0 0 0 0 0 0 0 0 0 0 0 0 0 0 0 0 0 0 0 0 0 0 0 0 0 0 0 0 0 0 0
0 0 0 0 0 0 0 0 0 0 0 0 0 0 0 0 0 0 0 0 0 0 0 0 0 0 0 0 0 0 0 0 0 0 0 0 0 0
Wind_Speed
6 7 6 5 5 6 6 6 7 10 9 6 6 6 9 7 14 12 10 21 24 23 23 22 21 21 20 19 19 18 17 16 15 14 13 11 10 9
5 6 7 6 5 5 6 7 7 9 12 5 8 7 8 9 16 11 12 21 23 24 24 23 23 23 22 21 20 19 19 18 17 15 14 13 11 10
7 7 8 8 6 5 5 6 7 7 14 8 5 5 7 8 9 9 9 12 12 24 25 25 24 24 23 23 22 21 20 19 18 17 15 14 13 12
9 9 9 7 8 7 6 7 8 8 10 13 7 5 9 9 10 11 9 10 9 20 26 26 25 25 24 24 23 22 21 20 18 17 17 16 15 13
10 10 10 9 10 8 8 8 7 8 9 10 10 6 7 5 7 7 7 6 8 14 23 26 26 26 26 26 25 23 21 20 19 18 17 17 16 15
11 11 11 11 11 11 9 10 9 9 9 10 9 6 6 4 5 6 6 8 9 9 16 19 22 25 27 27 25 22 22 22 21 20 19 18 17 16
14 12 13 15 18 16 12 10 9 9 9 10 10 7 7 6 7 5 10 8 10 9 9 9 10 11 16 23 24 23 25 25 24 22 21 20 19 18
17 16 14 14 19 25 27 25 20 15 12 12 11 12 11 10 7 8 9 8 10 8 9 11 10 13 12 11 22 28 28 27 26 24 23 22 21 19
17 17 16 15 15 14 20 26 24 26 27 18 17 17 12 9 11 12 11 12 10 7 10 13 12 16 11 15 28 30 30 29 27 26 25 24 22 21
19 19 20 20 17 19 16 16 17 18 20 16 17 17 13 9 12 15 15 14 8 7 13 10 10 13 10 11 26 31 31 30 29 27 26 25 24 22
20 20 20 21 27 32 24 19 20 19 23 28 29 26 27 24 15 9 10 10 12 10 9 8 5 6 7 10 15 28 30 30 29 29 27 26 25 22
16 18 22 26 29 32 22 19 21 20 15 14 18 22 20 20 24 17 14 14 9 9 11 9 5 6 5 6 9 11 17 25 29 29 28 27 26 15
14 14 15 26 31 32 29 21 24 23 15 15 15 14 13 12 12 14 14 15 15 11 8 11 8 7 6 4 6 10 11 11 15 20 26 29 28 21
15 15 16 29 32 34 28 27 34 30 16 14 14 14 13 12 11 12 14 16 15 11 10 12 9 10 8 6 5 7 9 9 10 11 12 23 26 27
16 26 30 34 33 25 28 33 27 18 15 15 15 14 12 10 9 9 11 13 14 9 9 13 11 11 11 10 6 6 8 9 10 10 11 13 14 15
18 22 31 33 29 26 21 19 15 15 16 15 13 10 8 8 10 10 10 10 10 9 9 13 14 14 13 10 9 8 9 9 11 11 10 9 9 10
18 15 13 12 12 12 12 12 12 13 14 14 12 10 9 10 10 10 10 10 10 9 7 7 8 8 10 11 9 10 10 8 9 12 10 11 10 11
22 13 12 11 12 12 12 11 11 12 12 11 10 10 9 10 10 9 10 11 11 10 9 8 7 5 2 1 8 10 11 10 10 11 9 11 12 10
13 10 11 12 12 12 12 11 12 11 10 10 10 9 9 9 9 10 10 9 9 9 9 9 10 11 12 11 6 10 10 9 11 11 11 9 10 11
9 11 12 13 13 12 12 11 11 10 10 10 10 9 9 9 9 10 10 10 9 8 9 9 11 12 13 10 7 6 14 11 11 13 11 6 5 10
11 11 12 13 13 12 11 11 10 10 10 9 9 9 8 9 9 9 9 10 9 9 11 11 9 7 4 6 7 5 6 13 12 9 11 9 7 7
11 12 12 13 13 11 11 10 9 9 10 9 9 7 6 6 7 9 9 10 9 8 7 6 8 7 6 7 7 8 7 8 9 12 11 7 7 9
11 12 12 13 12 11 10 9 8 7 7 7 6 4 4 3 4 6 7 7 7 8 9 8 7 6 5 5 7 8 11 10 7 7 6 8 10 9
Wind_Direction
277 274 271 265 252 247 241 227 241 264 262 226 237 230 223 215 219 215 211 219 219 219 217 214 213 214 215 217 217 213 209 206 203 202 200 195 190 185
286 277 273 267 259 248 245 242 236 251 267 230 227 228 219 219 220 216 215 218 221 221 219 216 215 214 214 215 216 214 211 208 205 204 202 199 195 191
303 291 281 273 267 256 245 245 245 241 263 265 236 226 216 220 221 214 210 210 218 220 220 218 217 216 214 214 215 215 213 211 208 205 203 201 199 195
300 296 289 284 274 266 254 247 246 239 254 268 256 229 224 218 219 215 211 211 213 221 222 222 220 218 216 215 214 214 213 211 209 206 204 203 201 199
287 286 285 282 279 273 264 259 253 248 244 257 260 235 229 215 216 219 209 206 209 222 225 225 223 221 219 217 214 213 211 209 207 205 205 205 204 202
280 276 275 271 271 271 270 266 260 255 250 254 255 235 224 211 205 206 208 206 215 214 226 227 226 224 222 220 216 211 209 207 206 204 204 205 205 203
285 277 271 267 265 269 267 264 258 260 257 255 255 235 220 203 213 194 214 207 220 209 215 221 219 219 217 221 216 210 208 207 206 204 202 203 204 203
285 284 279 271 270 273 272 269 262 257 254 253 256 248 238 218 208 204 208 201 225 197 199 223 215 222 217 214 216 211 209 208 206 204 202 202 202 202
282 282 280 276 272 270 272 272 270 264 258 252 252 251 246 220 211 214 210 213 219 168 185 224 213 225 215 216 216 214 209 207 205 204 202 201 201 201
280 279 279 278 275 276 272 266 260 258 257 256 254 255 247 230 217 218 216 223 223 191 185 214 207 217 213 213 220 216 212 207 204 203 202 201 200 200
283 280 278 276 276 277 274 269 266 263 262 257 252 254 254 249 231 218 216 213 226 214 193 211 205 195 201 211 218 220 217 210 205 202 201 200 198 198
285 283 281 280 279 278 271 265 262 261 258 256 255 257 256 253 244 226 217 219 220 216 193 194 182 160 201 208 201 210 217 215 208 203 201 199 196 191
286 287 286 288 287 286 281 272 266 265 256 249 248 247 243 239 237 232 223 221 224 223 189 181 185 179 184 184 199 204 206 204 202 202 201 198 197 190
285 285 284 286 285 285 284 279 280 276 263 250 243 239 237 233 229 228 229 227 228 223 188 179 188 186 183 180 194 199 204 201 196 193 192 196 197 196
275 274 277 281 283 283 283 281 280 275 264 253 245 239 233 228 220 220 226 230 230 220 194 187 186 190 196 201 185 180 189 202 198 191 188 190 188 188
275 273 275 276 275 274 275 277 271 265 260 254 247 240 227 219 216 214 218 218 223 215 200 198 196 194 200 196 186 186 185 188 191 192 188 190 186 184
283 274 266 262 257 255 257 260 263 267 261 251 244 235 227 224 222 213 211 209 210 204 189 187 192 197 204 189 191 192 189 192 188 185 182 190 194 190
301 291 288 280 271 265 261 259 259 261 263 260 247 234 228 224 221 212 206 206 207 200 185 171 158 143 100 257 202 190 189 190 186 182 181 189 193 189
313 303 297 291 283 275 267 261 261 261 262 264 255 242 233 225 216 209 203 202 202 194 181 174 178 183 194 204 201 207 189 181 179 183 186 189 190 182
314 307 301 297 291 281 272 266 262 262 260 263 262 248 236 225 213 204 199 195 191 184 177 179 190 196 205 202 172 190 194 180 178 180 176 160 148 158
315 310 305 300 294 287 276 266 260 260 260 260 261 254 240 225 210 199 193 185 180 181 186 190 189 167 129 123 130 145 176 185 181 177 165 152 147 155
316 314 313 310 306 298 290 276 263 258 258 255 254 247 235 221 201 187 185 184 185 181 174 157 145 146 156 174 164 151 148 152 155 149 143 135 151 166
321 319 319 320 322 321 311 299 284 272 265 259 250 234 208 193 180 176 175 173 167 157 147 145 148 154 163 169 156 151 150 145 135 125 106 97 97 105